Location: Unspecified
(0.0000°N, 0.0000°E)
Time: 08:00:19
(UTC+00:00)

deb Explorer IX - All Passes

Search period start: 22 October 2014 00:00
Search period end: 01 November 2014 00:00
Orbit: 559 x 1208 km, 38.8° (Epoch: 21 October)

Date Brightness Start Highest point End Pass type
(mag) Time Alt. Az. Time Alt. Az. Time Alt. Az.
22 Oct - 00:52:32 10° SW 01:00:23 69° SE 01:07:30 10° ENE night (unlit)
22 Oct - 02:43:04 10° W 02:49:05 26° NW 02:54:30 10° NNE night (unlit)
22 Oct - 11:59:51 10° N 12:02:55 20° NE 12:06:07 10° E daylight
22 Oct - 13:46:54 10° WNW 13:50:53 36° SW 13:55:24 10° SSE daylight
22 Oct - 23:01:37 10° S 23:07:14 21° SE 23:12:45 10° E night (unlit)
23 Oct - 00:48:29 10° SW 00:56:25 88° SE 01:03:40 10° NE night (unlit)
23 Oct - 02:40:00 10° W 02:45:09 20° NW 02:49:55 10° N night (unlit)
23 Oct - 11:55:24 10° NNW 11:59:01 29° NE 12:02:51 10° ESE daylight
23 Oct - 13:43:33 10° W 13:47:04 24° SW 13:50:57 10° SSE daylight
23 Oct - 22:56:52 10° SSW 23:03:18 27° SE 23:09:37 10° E night (unlit)
24 Oct - 00:44:28 10° SW 00:52:21 72° NW 00:59:37 10° NE night (unlit)
24 Oct - 02:37:13 10° WNW 02:41:10 15° NW 02:44:54 10° N night (unlit)
24 Oct - 11:51:05 10° NNW 11:55:02 45° NE 11:59:12 10° ESE daylight
24 Oct - 13:40:26 10° WSW 13:43:11 16° SW 13:46:07 10° S daylight
24 Oct - 22:52:14 10° SSW 22:59:13 35° SE 23:06:07 10° ENE night (unlit)
25 Oct - 00:40:28 10° WSW 00:48:10 56° NW 00:55:21 10° NE night (unlit)
25 Oct - 02:35:20 10° NW 02:37:08 11° NW 02:38:53 10° NNW night (unlit)
25 Oct - 11:46:51 10° NW 11:50:57 73° NE 11:55:16 10° SE daylight
25 Oct - 13:38:13 10° SW 13:39:14 11° SW 13:40:16 10° SSW daylight
25 Oct - 22:47:37 10° SSW 22:54:59 45° SE 23:02:19 10° ENE night (unlit)
26 Oct - 00:36:31 10° WSW 00:43:53 43° NW 00:50:52 10° NNE night (unlit)
26 Oct - 11:42:40 10° NW 11:46:47 70° SW 11:51:03 10° SE daylight
26 Oct - 20:58:25 10° SSE 21:01:27 13° SE 21:04:33 10° ESE visible
26 Oct - 22:43:03 10° SW 22:50:38 59° SE 22:58:16 10° ENE night (unlit)
27 Oct - 00:32:38 10° WSW 00:39:32 34° NW 00:46:09 10° NNE night (unlit)
27 Oct - 09:51:58 10° N 09:54:32 15° NE 09:57:01 10° ENE daylight
27 Oct - 11:38:35 10° WNW 11:42:32 43° SW 11:46:35 10° SSE daylight
27 Oct - 20:52:40 10° S 20:57:10 17° SE 21:01:49 10° ESE visible
27 Oct - 22:38:29 10° SW 22:46:10 75° SE 22:53:59 10° NE night (unlit)
28 Oct - 00:28:50 10° W 00:35:07 26° NW 00:41:13 10° NNE night (unlit)
28 Oct - 09:46:45 10° NNW 09:50:14 23° NE 09:53:33 10° E daylight
28 Oct - 11:34:35 10° W 11:38:11 28° SW 11:41:50 10° SSE daylight
28 Oct - 20:47:19 10° S 20:52:43 22° SE 20:58:24 10° E visible
28 Oct - 22:33:56 10° SW 22:41:36 86° NW 22:49:28 10° NE night (unlit)
29 Oct - 00:25:12 10° W 00:30:39 20° NW 00:35:59 10° N night (unlit)
29 Oct - 09:41:46 10° NNW 09:45:49 35° NE 09:49:37 10° ESE daylight
29 Oct - 11:30:46 10° W 11:33:45 19° SW 11:36:44 10° S daylight
29 Oct - 20:42:06 10° SSW 20:48:08 28° SE 20:54:33 10° E visible
29 Oct - 22:29:24 10° WSW 22:36:56 68° NW 22:44:44 10° NE night (unlit)
30 Oct - 00:21:50 10° WNW 00:26:07 16° NW 00:30:22 10° N night (unlit)
30 Oct - 09:36:53 10° NW 09:41:17 54° NE 09:45:21 10° ESE daylight
30 Oct - 11:27:21 10° WSW 11:29:13 13° SW 11:31:05 10° SSW daylight
30 Oct - 20:36:59 10° SSW 20:43:24 36° SE 20:50:22 10° ENE visible
30 Oct - 22:24:54 10° WSW 22:32:12 53° NW 22:39:48 10° NE night (unlit)
31 Oct - 00:19:10 10° NW 00:21:34 12° NW 00:23:57 10° NNW night (unlit)
31 Oct - 09:32:04 10° NW 09:36:38 85° NE 09:40:49 10° SE daylight
31 Oct - 20:31:53 10° SSW 20:38:34 46° SE 20:45:55 10° ENE visible
31 Oct - 22:20:26 10° WSW 22:27:23 41° NW 22:34:39 10° NNE night (unlit)
